Tracking 21076 objects as of 9-Aug-2020
HD Live streaming from Space Station
objects crossing your sky now
Track the most recent launched group of Starlink satellites

NINGXIA-1 4

Track NINGXIA-1 4 now!
10-day predictions


NORAD ID: 44782
Int'l Code: 2019-076D
Perigee: 886.1 km
Apogee: 904.2 km
Inclination: 45.0 °
Period: 102.7 minutes
Semi major axis: 7266 km
RCS: Unknown
Launch date: November 13, 2019
Source: People's Republic of China (PRC)
Launch site: Taiyaun Space Center, China (TSC)
aabbcc
Your satellite tracking list
Your tracking list is empty




NASA's NSSDC Master Catalog

Two Line Element Set (TLE):
1 44782U 19076D   20222.12451577 -.00000130  00000-0  00000+0 0  9992
2 44782  45.0130  10.3734 0012492  93.1457 267.0808 14.01668514 37866
Source of the keplerian elements: AFSPC